Location: Newark
(46.7000°N, 60.6000°W)
Time: 12:34:21
(UTC+00:00)

A-11 Canister half - Pass Details

Date: 31 October 2020
Orbit: 1516 x 1684 km, 47.2° (Epoch: 04 December)

Event Time Altitude Azimuth Distance (km) Brightness Sun altitude
Rises 21:19:03 0° 189° (S) 4,917 12.0 -6.0°
Reaches altitude 10° 21:23:05 10° 176° (S) 3,937 11.3 -6.6°
Maximum altitude 21:30:25 23° 129° (SE) 3,011 10.2 -7.9°
Enters shadow 21:37:37 10° 82° (E) 3,901 10.4 -9.1°
